Simultaneous Nadir Overpasses (SNOs) Predictions

Prediction of SNOs between NOAA-19 and NPP Satellite Orbit:

Table of predicted SNOs for the next 14.0 days since TLE Epoch: 8/6/2022
Index Date (NOAA-19) Time (NOAA-19) Lat,Lon (NOAA-19) SZA (NOAA-19 ) Date (NPP) Time (NPP) Lat,Lon (NPP) SZA (NPP ) Distance(km) Time Diff (sec)
1 08/08/2022 23:03:45 -76.64, -4.79 118.46 08/08/2022 23:04:51 -76.61, -4.78 118.52 3.72 66
2 08/08/2022 23:54:40 76.62, 162.39 61.54 08/08/2022 23:55:37 76.62, 162.48 61.52 2.26 57
3 08/09/2022 00:45:45 -76.63, -30.32 118.45 08/09/2022 00:46:22 -76.65, -30.33 118.44 2.36 37
4 08/09/2022 01:36:39 76.65, 137.04 61.58 08/09/2022 01:37:08 76.67, 136.93 61.59 3.34 29
5 08/09/2022 02:27:44 -76.67, -55.67 118.41 08/09/2022 02:27:52 -76.65, -55.71 118.42 1.68 8
6 08/09/2022 03:18:39 76.64, 111.51 61.60 08/09/2022 03:18:38 76.67, 111.54 61.62 2.95 1
7 08/09/2022 04:09:44 -76.66, -81.20 118.39 08/09/2022 04:09:22 -76.66, -81.10 118.39 2.69 22
8 08/09/2022 05:00:38 76.68, 86.15 61.64 08/09/2022 05:00:08 76.67, 86.16 61.64 0.79 30
9 08/09/2022 05:51:43 -76.69,-106.55 118.35 08/09/2022 05:50:53 -76.70,-106.65 118.31 2.73 50
10 08/09/2022 06:42:38 76.67, 60.62 61.65 08/09/2022 06:41:38 76.67, 60.78 61.66 3.96 60
11 08/09/2022 07:33:38 -76.89,-131.18 118.21 08/09/2022 07:32:27 -76.88,-132.73 118.07 39.12 71



Historial Predications of SNOs between NOAA-19 and NPP
